STARLINK-33719, 63578

Orbit data source: Space-Track

STARLINK-33719, 63578 is a payload satellite owned by SpaceX/Seattle (US) in LEO that was launched on Mon, 14 Apr 2025 UTC via an FALCON 9 launch vehicle from the Air Force Eastern Test Range (AFETR). Payload-class satellites include a variety of spacecraft equipped with specific instruments for various scientific and technological missions. These include communications satellites like Starlink; space stations such as the ISS; scientific satellites like the Hubble; Earth observation satellites from companies like Planet Labs, Umbra, and HawkEye 360; GPS; miniature CubeSats for education and research; and military/defense satellites.

Loading next visibility...
Identifier
63578, 2025-076K
Orbit
LEO
Country
Flag of USUS
Related business
Manufacturer
SpaceX/Seattle
Mission
Operational Commercial Communications
Bus & Motor
STARLINK V2MO, Unknown motor
Mass
575 kg wet, ~530 kg dry
Launch date (UTC)
2025-04-14 (1 year ago)
Launch vehicle
FALCON 9
Launch site
Air Force Eastern Test Range (AFETR)
Object type
Payload
Rocket body
Debris
Shape & HBR
Box + 2 Pan, 17.7 m
Radar Cross Section
36.964 m², Large (>1 m²)

Expand to show TLE details & history
Last TLE update: 9 hours ago

TLE from 9 hours ago
0 STARLINK-33719
1 63578U 25076K   26145.01137605  .00017131  00000-0  63065-3 0  9996
2 63578  43.0008 250.6043 0001814 268.4705  91.5939 15.27576626 63509
Epoch: 2026-05-25T00:16Z
TLE epoch observation values (Epoch: 2026-05-25T00:16:22.890Z)
Latitude
-0.00002°
Longitude
3.90361°
Altitude
482.87 km
Speed
7.626 km/s
True Right ascension
16h 42m 25s
True Declination
0° 00' 00"
Sunlit
Object was in full shadow at epoch
Visualization orbit readout
Latitude
Unknown
Longitude
Unknown
Altitude
Unknown
Speed
Unknown
Apparent Right ascension
Unknown
Apparent Declination
Unknown
Sunlit
N/A
Visualization observer readout
Local Sidereal Time
18:25:15
Azimuth
Unknown
Elevation
Unknown
Doppler factor
Unknown
Orbital elements
Apogee altitude
486.249 km
Perigee altitude
483.759 km
Semi-major axis
6,863.141 km
Eccentricity
0.00018
Inclination
43.0008°
RAAN
250.6043°
Arg. of periapsis
268.4705°
True anomaly
91.61468°
Mean anomaly
91.5939°
Eccentric anomaly
91.60429°
Mean motion
3.81732 °/min
Orbital period
94.31 mins
BSTAR
0.00063065
Loading maneuver chart data...
Computing Atmospheric mass density...
Loading historical data...
Loading historical data...
Loading historical data...
Loading historical data...
Loading historical data...
Loading historical data...
Loading historical data...

Documentation

Showing up to 5 results
|